This is the latest recevied weather packets stored in our database for station/object N3TJJ-2. If no packets are shown the sender has not sent any weather packets the latest 10 day(s).
| Time | Temp. | Humidity | Pressure | Rain* | Wind** | Luminosity | Snow |
|---|---|---|---|---|---|---|---|
| 1787880309 | 20° C | 30% | 1016.2 hPa | 23.62 mm | - | - | - |
| 1787879963 | 20° C | 30% | 1016.1 hPa | 17.27 mm | - | - | - |
| 1787879566 | 20° C | 31% | 1016.2 hPa | 11.68 mm | - | - | - |
| 1787879219 | 20° C | 32% | 1016.1 hPa | 11.43 mm | - | - | - |
| 1787878909 | 20° C | 33% | 1016 hPa | 11.43 mm | - | - | - |
| 1787878483 | 20° C | 34% | 1016.2 hPa | 11.18 mm | - | - | - |
| 1787878157 | 20° C | 36% | 1016.4 hPa | 11.18 mm | - | - | - |
| 1787877771 | 19.44° C | 41% | 1016.5 hPa | 10.92 mm | - | - | - |
| 1787877402 | 20° C | 55% | 1016.3 hPa | 7.11 mm | - | - | - |
| 1787877067 | 20° C | 59% | 1016.6 hPa | 0.25 mm | - | - | - |
| 1787876693 | 20.56° C | 61% | 1016.5 hPa | 0 mm | - | - | - |
| 1787876359 | 20.56° C | 55% | 1016.3 hPa | 0 mm | - | - | - |
| 1787875971 | 20.56° C | 53% | 1015.9 hPa | 0 mm | - | - | - |
| 1787875603 | 20.56° C | 52% | 1016 hPa | 0 mm | - | - | - |
| 1787875247 | 20.56° C | 51% | 1015.7 hPa | 0 mm | - | - | - |
| 1787874887 | 20.56° C | 51% | 1015.9 hPa | 0 mm | - | - | - |
| 1787874530 | 20.56° C | 50% | 1015.7 hPa | 0 mm | - | - | - |
| 1787874169 | 20° C | 51% | 1015.8 hPa | 0 mm | - | - | - |
| 1787873802 | 20.56° C | 54% | 1016.1 hPa | 0 mm | - | - | - |
| 1787873443 | 20.56° C | 53% | 1015.9 hPa | 0 mm | - | - | - |
| 1787873087 | 20.56° C | 51% | 1015.7 hPa | 0 mm | - | - | - |
| 1787872733 | 20.56° C | 51% | 1015.5 hPa | 0 mm | - | - | - |
| 1787872384 | 20.56° C | 51% | 1015.5 hPa | 0 mm | - | - | - |
| 1787872013 | 20.56° C | 51% | 1015.6 hPa | 0 mm | - | - | - |
| 1787871650 | 20.56° C | 52% | 1015.2 hPa | 0.25 mm | - | - | - |
* Rain latest hour (hover to see other rain measurements)
** Current wind speed in m/s (hover to see current wind gust speed)